SHT22A EGLL-EGJB

Flight info

Callsign SHT22A
Flight time 0h 35m
Altitude 21000
Route GASGU2J GASGU N866 SAM/N0383F200 N63 LELNA LELNA1V
Aircraft A319/M-SDE2E3FGHIJ1RWXY/SB1

Departure

Time 2026-04-22 08:45
Airport London Heathrow Airport (EGLL)

Arrival

Time 2026-04-22 09:21
Airport Guernsey Airport (EGJB)
Time Latitude Longitude Altitude Speed Heading
2026-04-22 08:22 51.46826 -0.48680 86 ft 0 kts 180°
2026-04-22 08:37 51.46840 -0.48680 88 ft 4 kts 180°
2026-04-22 08:37 51.46861 -0.48681 86 ft 4 kts 187°
2026-04-22 08:37 51.46876 -0.48664 88 ft 4 kts 264°
2026-04-22 08:38 51.46877 -0.48629 86 ft 1 kts 270°
2026-04-22 08:42 51.46877 -0.48639 86 ft 3 kts 270°
2026-04-22 08:42 51.46877 -0.48686 86 ft 6 kts 270°
2026-04-22 08:42 51.46858 -0.48750 88 ft 8 kts 201°
2026-04-22 08:43 51.46794 -0.48750 86 ft 11 kts 179°
2026-04-22 08:43 51.46712 -0.48749 86 ft 13 kts 180°
2026-04-22 08:43 51.46625 -0.48754 88 ft 12 kts 192°
2026-04-22 08:43 51.46536 -0.48788 86 ft 13 kts 176°
2026-04-22 08:44 51.46481 -0.48722 86 ft 10 kts 112°
2026-04-22 08:44 51.46478 -0.48672 86 ft 0 kts 89°
2026-04-22 08:44 51.46478 -0.48665 86 ft 3 kts 89°
2026-04-22 08:44 51.46480 -0.48351 87 ft 57 kts 89°
2026-04-22 08:45 51.46481 -0.47386 86 ft 115 kts 89°
2026-04-22 08:45 51.46491 -0.45846 221 ft 150 kts 88°
2026-04-22 08:45 51.46508 -0.44218 881 ft 148 kts 89°
2026-04-22 08:45 51.46520 -0.42552 1529 ft 157 kts 89°
2026-04-22 08:46 51.46181 -0.40771 1925 ft 185 kts 121°
2026-04-22 08:46 51.45339 -0.39021 2396 ft 210 kts 122°
2026-04-22 08:46 51.44448 -0.37012 3138 ft 227 kts 122°
2026-04-22 08:46 51.43495 -0.34948 4199 ft 234 kts 130°
2026-04-22 08:47 51.42162 -0.33401 5240 ft 245 kts 150°
2026-04-22 08:47 51.40457 -0.32775 6232 ft 260 kts 174°
2026-04-22 08:47 51.38635 -0.33365 7153 ft 278 kts 199°
2026-04-22 08:47 51.37044 -0.35182 8029 ft 291 kts 218°
2026-04-22 08:48 51.35542 -0.37384 8989 ft 294 kts 218°
2026-04-22 08:48 51.34021 -0.39614 9901 ft 298 kts 219°
2026-04-22 08:48 51.32473 -0.41886 10608 ft 311 kts 220°
2026-04-22 08:48 51.31041 -0.44665 10901 ft 338 kts 234°
2026-04-22 08:49 51.29936 -0.48098 11390 ft 355 kts 247°
2026-04-22 08:49 51.29127 -0.51876 12110 ft 361 kts 251°
2026-04-22 08:49 51.28401 -0.55744 12888 ft 365 kts 252°
2026-04-22 08:49 51.27703 -0.59665 13672 ft 368 kts 253°
2026-04-22 08:50 51.26985 -0.63618 14394 ft 372 kts 252°
2026-04-22 08:50 51.26240 -0.67603 15053 ft 376 kts 252°
2026-04-22 08:50 51.25471 -0.71616 15706 ft 379 kts 252°
2026-04-22 08:50 51.24685 -0.75644 16460 ft 380 kts 253°
2026-04-22 08:51 51.23905 -0.79616 17192 ft 381 kts 253°
2026-04-22 08:51 51.23106 -0.83659 17910 ft 383 kts 254°
2026-04-22 08:51 51.22301 -0.87723 18634 ft 384 kts 255°
2026-04-22 08:51 51.21470 -0.91770 19289 ft 386 kts 250°
2026-04-22 08:52 51.20273 -0.95631 19897 ft 390 kts 240°
2026-04-22 08:52 51.18629 -0.99098 20563 ft 395 kts 231°
2026-04-22 08:52 51.16655 -1.02190 21098 ft 397 kts 226°
2026-04-22 08:52 51.14668 -1.05232 21267 ft 396 kts 227°
2026-04-22 08:53 51.12691 -1.08264 21301 ft 394 kts 227°
2026-04-22 08:53 51.10718 -1.11294 21304 ft 393 kts 227°
2026-04-22 08:53 51.08753 -1.14312 21303 ft 392 kts 227°
2026-04-22 08:53 51.06789 -1.17322 21303 ft 392 kts 227°
2026-04-22 08:54 51.04821 -1.20329 21301 ft 393 kts 227°
2026-04-22 08:54 51.02851 -1.23333 21301 ft 392 kts 227°
2026-04-22 08:54 51.00875 -1.26342 21302 ft 393 kts 227°
2026-04-22 08:54 50.98906 -1.29342 21301 ft 393 kts 227°
2026-04-22 08:55 50.97731 -1.31133 21300 ft 393 kts 227°
2026-04-22 08:55 50.95673 -1.34000 21300 ft 395 kts 219°
2026-04-22 08:55 50.93318 -1.36288 21299 ft 399 kts 210°
2026-04-22 08:55 50.90838 -1.38257 21299 ft 399 kts 210°
2026-04-22 08:56 50.88355 -1.40233 21301 ft 399 kts 209°
2026-04-22 08:56 50.85874 -1.42209 21292 ft 398 kts 210°
2026-04-22 08:56 50.83400 -1.44184 21293 ft 398 kts 209°
2026-04-22 08:56 50.80925 -1.46156 21296 ft 398 kts 208°
2026-04-22 08:57 50.78453 -1.48120 21298 ft 398 kts 209°
2026-04-22 08:57 50.75983 -1.50080 21290 ft 398 kts 210°
2026-04-22 08:57 50.73513 -1.52042 21275 ft 397 kts 209°
2026-04-22 08:57 50.71072 -1.53982 21277 ft 397 kts 210°
2026-04-22 08:58 50.68603 -1.55938 21274 ft 397 kts 210°
2026-04-22 08:58 50.66132 -1.57888 21270 ft 397 kts 209°
2026-04-22 08:58 50.63660 -1.59837 21265 ft 397 kts 209°
2026-04-22 08:58 50.61188 -1.61786 21264 ft 397 kts 209°
2026-04-22 08:59 50.58720 -1.63729 21260 ft 397 kts 209°
2026-04-22 08:59 50.56251 -1.65667 21265 ft 396 kts 208°
2026-04-22 08:59 50.53781 -1.67604 21260 ft 396 kts 209°
2026-04-22 08:59 50.51318 -1.69535 21255 ft 396 kts 210°
2026-04-22 09:00 50.48852 -1.71468 21247 ft 396 kts 209°
2026-04-22 09:00 50.46399 -1.73386 21066 ft 389 kts 210°
2026-04-22 09:00 50.43988 -1.75269 20816 ft 386 kts 210°
2026-04-22 09:00 50.41582 -1.77147 20568 ft 385 kts 209°
2026-04-22 09:01 50.39192 -1.79014 20328 ft 381 kts 208°
2026-04-22 09:01 50.36826 -1.80857 20226 ft 379 kts 208°
2026-04-22 09:01 50.34463 -1.82696 20248 ft 379 kts 209°
2026-04-22 09:01 50.32098 -1.84541 20232 ft 379 kts 208°
2026-04-22 09:02 50.29772 -1.86351 20232 ft 377 kts 208°
2026-04-22 09:02 50.27425 -1.88174 20234 ft 377 kts 208°
2026-04-22 09:02 50.25079 -1.89996 20233 ft 376 kts 208°
2026-04-22 09:02 50.22731 -1.91814 20231 ft 376 kts 207°
2026-04-22 09:03 50.20383 -1.93629 20231 ft 376 kts 207°
2026-04-22 09:03 50.18035 -1.95444 20230 ft 376 kts 208°
2026-04-22 09:03 50.15687 -1.97255 20230 ft 376 kts 207°
2026-04-22 09:03 50.13343 -1.99063 20227 ft 375 kts 207°
2026-04-22 09:04 50.11003 -2.00863 20221 ft 375 kts 207°
2026-04-22 09:04 50.08659 -2.02663 20218 ft 375 kts 207°
2026-04-22 09:04 50.06313 -2.04462 20214 ft 375 kts 207°
2026-04-22 09:04 50.03968 -2.06259 20169 ft 376 kts 207°
2026-04-22 09:05 50.01656 -2.08031 19924 ft 374 kts 207°
2026-04-22 09:05 49.99353 -2.09924 19679 ft 372 kts 213°
2026-04-22 09:05 49.97328 -2.12356 19327 ft 366 kts 224°
2026-04-22 09:05 49.95612 -2.15249 18844 ft 363 kts 229°
2026-04-22 09:06 49.93947 -2.18185 18309 ft 361 kts 229°
2026-04-22 09:06 49.92289 -2.21087 17791 ft 358 kts 229°
2026-04-22 09:06 49.90639 -2.23965 17291 ft 354 kts 229°
2026-04-22 09:06 49.89010 -2.26804 16804 ft 351 kts 229°
2026-04-22 09:07 49.87396 -2.29620 16316 ft 347 kts 227°
2026-04-22 09:07 49.85793 -2.32415 15828 ft 345 kts 227°
2026-04-22 09:07 49.84223 -2.35143 15351 ft 342 kts 227°
2026-04-22 09:07 49.82621 -2.37919 14869 ft 340 kts 227°
2026-04-22 09:08 49.81068 -2.40611 14395 ft 338 kts 227°
2026-04-22 09:08 49.79503 -2.43322 13912 ft 337 kts 227°
2026-04-22 09:08 49.77949 -2.46018 13401 ft 335 kts 227°
2026-04-22 09:08 49.76403 -2.48697 12925 ft 332 kts 226°
2026-04-22 09:09 49.74866 -2.51355 12455 ft 330 kts 226°
2026-04-22 09:09 49.73338 -2.53986 11987 ft 327 kts 226°
2026-04-22 09:09 49.71818 -2.56598 11510 ft 326 kts 226°
2026-04-22 09:09 49.70308 -2.59196 11072 ft 324 kts 225°
2026-04-22 09:10 49.68791 -2.61783 10529 ft 326 kts 224°
2026-04-22 09:10 49.67291 -2.64319 10392 ft 313 kts 225°
2026-04-22 09:10 49.65846 -2.66758 10264 ft 302 kts 224°
2026-04-22 09:10 49.64480 -2.69109 10038 ft 296 kts 224°
2026-04-22 09:11 49.63214 -2.71599 9706 ft 296 kts 237°
2026-04-22 09:11 49.62406 -2.74517 9266 ft 297 kts 249°
2026-04-22 09:11 49.61808 -2.77556 8798 ft 295 kts 250°
2026-04-22 09:11 49.61232 -2.80592 8284 ft 296 kts 250°
2026-04-22 09:12 49.60681 -2.83647 7814 ft 296 kts 250°
2026-04-22 09:12 49.60148 -2.86722 7315 ft 297 kts 251°
2026-04-22 09:12 49.59494 -2.89702 6865 ft 289 kts 234°
2026-04-22 09:12 49.58191 -2.91923 6505 ft 273 kts 206°
2026-04-22 09:13 49.56485 -2.92911 6138 ft 257 kts 181°
2026-04-22 09:13 49.54721 -2.92955 5762 ft 251 kts 171°
2026-04-22 09:13 49.52981 -2.92845 5506 ft 247 kts 171°
2026-04-22 09:13 49.51286 -2.93164 5372 ft 246 kts 187°
2026-04-22 09:14 49.49698 -2.93704 5244 ft 225 kts 175°
2026-04-22 09:14 49.48179 -2.93752 5121 ft 212 kts 171°
2026-04-22 09:14 49.46743 -2.93746 4992 ft 201 kts 170°
2026-04-22 09:14 49.45387 -2.93759 4864 ft 189 kts 170°
2026-04-22 09:15 49.44133 -2.93654 4672 ft 170 kts 152°
2026-04-22 09:15 49.43238 -2.92692 4449 ft 151 kts 127°
2026-04-22 09:15 49.42733 -2.91307 4201 ft 149 kts 108°
2026-04-22 09:15 49.42632 -2.89744 3995 ft 151 kts 92°
2026-04-22 09:16 49.42682 -2.88138 3791 ft 149 kts 92°
2026-04-22 09:16 49.42731 -2.86557 3589 ft 147 kts 92°
2026-04-22 09:16 49.42778 -2.84997 3400 ft 145 kts 91°
2026-04-22 09:16 49.42824 -2.83448 3201 ft 144 kts 91°
2026-04-22 09:17 49.42870 -2.81916 3006 ft 144 kts 92°
2026-04-22 09:17 49.42915 -2.80385 2793 ft 143 kts 92°
2026-04-22 09:17 49.42960 -2.78860 2598 ft 143 kts 92°
2026-04-22 09:17 49.43005 -2.77340 2401 ft 142 kts 92°
2026-04-22 09:18 49.43049 -2.75833 2209 ft 140 kts 91°
2026-04-22 09:18 49.43092 -2.74384 2020 ft 133 kts 92°
2026-04-22 09:18 49.43133 -2.72980 1841 ft 131 kts 92°
2026-04-22 09:18 49.43173 -2.71622 1670 ft 121 kts 92°
2026-04-22 09:19 49.43209 -2.70348 1499 ft 117 kts 92°
2026-04-22 09:19 49.43243 -2.69122 1343 ft 114 kts 90°
2026-04-22 09:19 49.43277 -2.67899 1177 ft 116 kts 89°
2026-04-22 09:19 49.43303 -2.67074 1027 ft 118 kts 89°
2026-04-22 09:20 49.43350 -2.65419 839 ft 116 kts 89°
2026-04-22 09:20 49.43384 -2.64199 692 ft 116 kts 88°
2026-04-22 09:20 49.43421 -2.62973 545 ft 117 kts 89°
2026-04-22 09:20 49.43455 -2.61752 387 ft 113 kts 88°
2026-04-22 09:21 49.43476 -2.60949 315 ft 104 kts 88°
2026-04-22 09:21 49.43497 -2.60160 312 ft 35 kts 88°
2026-04-22 09:21 49.43503 -2.59943 320 ft 14 kts 87°
2026-04-22 09:21 49.43476 -2.59864 323 ft 11 kts 171°
2026-04-22 09:22 49.43419 -2.59860 325 ft 7 kts 179°
2026-04-22 09:22 49.43367 -2.59855 321 ft 8 kts 171°
2026-04-22 09:22 49.43345 -2.59799 326 ft 5 kts 88°
2026-04-22 09:22 49.43355 -2.59740 325 ft 4 kts 72°
2026-04-22 09:23 49.43357 -2.59695 329 ft 4 kts 106°
2026-04-22 09:23 49.43329 -2.59689 329 ft 5 kts 176°
2026-04-22 09:23 49.43301 -2.59687 328 ft 4 kts 178°
2026-04-22 09:23 49.43279 -2.59686 325 ft 1 kts 178°
2026-04-22 09:24 49.43268 -2.59685 327 ft 2 kts 178°
2026-04-22 09:24 49.43260 -2.59685 328 ft 1 kts 178°
2026-04-22 09:24 49.43254 -2.59684 328 ft 0 kts 177°